Time,TemperatureF,DewpointF,PressureIn,WindDirection,WindDirectionDegrees,WindSpeedMPH,WindSpeedGustMPH,Humidity,HourlyPrecipIn,Conditions,Clouds,dailyrainin,SoftwareType,DateUTC
2013-04-08 00:14:00,50.3,46.0,29.84,West,267,8.0,23.0,84,0.03,,,0.00,weatherlink.com 1.10,2013-04-08 07:14:00,
2013-04-08 00:29:00,49.5,45.0,29.84,WNW,285,6.0,25.0,83,0.01,,,0.00,weatherlink.com 1.10,2013-04-08 07:29:00,
2013-04-08 00:44:00,49.2,44.0,29.83,WNW,295,3.0,26.0,83,0.01,,,0.00,weatherlink.com 1.10,2013-04-08 07:44:00,
2013-04-08 00:59:00,48.9,44.0,29.83,NW,304,11.0,25.0,83,0.00,,,0.00,weatherlink.com 1.10,2013-04-08 07:59:00,
2013-04-08 01:14:00,48.8,43.0,29.84,NW,315,7.0,23.0,81,0.00,,,0.00,weatherlink.com 1.10,2013-04-08 08:14:00,
2013-04-08 01:29:00,48.7,43.0,29.82,NW,310,13.0,28.0,80,0.00,,,0.00,weatherlink.com 1.10,2013-04-08 08:29:00,
2013-04-08 01:44:00,48.5,43.0,29.83,NNW,338,6.0,24.0,81,0.00,,,0.00,weatherlink.com 1.10,2013-04-08 08:44:00,
2013-04-08 01:59:00,48.6,43.0,29.82,WNW,293,4.0,23.0,80,0.00,,,0.00,weatherlink.com 1.10,2013-04-08 08:59:00,
2013-04-08 02:14:00,48.6,42.0,29.80,WNW,295,10.0,22.0,79,0.00,,,0.00,weatherlink.com 1.10,2013-04-08 09:14:00,
2013-04-08 02:29:00,48.7,43.0,29.81,NW,309,6.0,26.0,80,0.00,,,0.00,weatherlink.com 1.10,2013-04-08 09:29:00,
2013-04-08 02:44:00,48.8,43.0,29.81,NW,322,14.0,25.0,79,0.00,,,0.00,weatherlink.com 1.10,2013-04-08 09:44:00,
2013-04-08 02:59:00,48.5,42.0,29.80,WNW,295,11.0,27.0,79,0.00,,,0.00,weatherlink.com 1.10,2013-04-08 09:59:00,
2013-04-08 03:14:00,48.3,42.0,29.80,NW,305,7.0,20.0,79,0.00,,,0.00,weatherlink.com 1.10,2013-04-08 10:14:00,
2013-04-08 03:29:00,48.2,42.0,29.80,NW,319,14.0,21.0,78,0.00,,,0.00,weatherlink.com 1.10,2013-04-08 10:29:00,
2013-04-08 03:44:00,48.1,41.0,29.81,NW,310,4.0,18.0,77,0.00,,,0.00,weatherlink.com 1.10,2013-04-08 10:44:00,
2013-04-08 03:59:00,47.9,41.0,29.84,NNW,335,16.0,19.0,77,0.00,,,0.00,weatherlink.com 1.10,2013-04-08 10:59:00,
2013-04-08 04:14:00,47.9,41.0,29.84,NNW,333,4.0,15.0,76,0.00,,,0.00,weatherlink.com 1.10,2013-04-08 11:14:00,
2013-04-08 04:29:00,47.7,40.0,29.84,NNW,337,0.0,17.0,76,0.00,,,0.00,weatherlink.com 1.10,2013-04-08 11:29:00,
2013-04-08 04:44:00,47.7,40.0,29.85,NNE,32,4.0,16.0,75,0.00,,,0.00,weatherlink.com 1.10,2013-04-08 11:44:00,
2013-04-08 04:59:00,47.7,39.0,29.85,West,272,5.0,19.0,73,0.00,,,0.00,weatherlink.com 1.10,2013-04-08 11:59:00,
2013-04-08 05:14:00,47.7,39.0,29.85,NW,326,4.0,21.0,72,0.00,,,0.00,weatherlink.com 1.10,2013-04-08 12:14:00,
2013-04-08 05:29:00,47.5,38.0,29.86,NW,304,12.0,20.0,70,0.00,,,0.00,weatherlink.com 1.10,2013-04-08 12:29:00,
2013-04-08 05:44:00,47.5,38.0,29.86,NE,41,11.0,17.0,69,0.00,,,0.00,weatherlink.com 1.10,2013-04-08 12:44:00,
2013-04-08 05:59:00,47.5,38.0,29.86,NNW,330,4.0,18.0,69,0.00,,,0.00,weatherlink.com 1.10,2013-04-08 12:59:00,
2013-04-08 06:14:00,47.3,38.0,29.88,NW,321,9.0,17.0,70,0.00,,,0.00,weatherlink.com 1.10,2013-04-08 13:14:00,
2013-04-08 06:29:00,47.1,37.0,29.89,NW,312,3.0,15.0,69,0.00,,,0.00,weatherlink.com 1.10,2013-04-08 13:29:00,
2013-04-08 06:45:00,46.9,38.0,29.90,NW,319,5.0,14.0,70,0.00,,,0.00,weatherlink.com 1.10,2013-04-08 13:45:00,
2013-04-08 06:59:00,47.1,38.0,29.90,NW,321,6.0,19.0,70,0.00,,,0.00,weatherlink.com 1.10,2013-04-08 13:59:00,
2013-04-08 07:15:00,46.9,38.0,29.91,NW,319,3.0,11.0,70,0.00,,,0.00,weatherlink.com 1.10,2013-04-08 14:15:00,
2013-04-08 07:31:00,47.0,38.0,29.91,WNW,295,2.0,8.0,70,0.00,,,0.00,weatherlink.com 1.10,2013-04-08 14:31:00,
2013-04-08 07:45:00,47.5,38.0,29.92,North,8,6.0,19.0,69,0.00,,,0.00,weatherlink.com 1.10,2013-04-08 14:45:00,
2013-04-08 08:00:00,48.1,38.0,29.93,NW,322,8.0,20.0,67,0.00,,,0.00,weatherlink.com 1.10,2013-04-08 15:00:00,
2013-04-08 08:15:00,48.4,38.0,29.93,NNW,338,2.0,22.0,67,0.00,,,0.00,weatherlink.com 1.10,2013-04-08 15:15:00,
2013-04-08 08:30:00,48.8,37.0,29.93,NNW,332,8.0,21.0,64,0.00,,,0.00,weatherlink.com 1.10,2013-04-08 15:30:00,
2013-04-08 08:45:00,49.2,37.0,29.93,North,5,5.0,22.0,64,0.00,,,0.00,weatherlink.com 1.10,2013-04-08 15:45:00,
2013-04-08 09:00:00,49.7,37.0,29.93,NNE,13,7.0,18.0,62,0.00,,,0.00,weatherlink.com 1.10,2013-04-08 16:00:00,
2013-04-08 09:15:00,50.2,38.0,29.93,NNW,330,6.0,26.0,63,0.00,,,0.00,weatherlink.com 1.10,2013-04-08 16:15:00,
2013-04-08 09:30:00,50.7,38.0,29.93,North,349,8.0,19.0,62,0.00,,,0.00,weatherlink.com 1.10,2013-04-08 16:30:00,
2013-04-08 09:45:00,51.2,38.0,29.93,NNW,330,15.0,24.0,61,0.00,,,0.00,weatherlink.com 1.10,2013-04-08 16:45:00,
2013-04-08 10:00:00,51.8,38.0,29.93,North,352,18.0,24.0,59,0.00,,,0.00,weatherlink.com 1.10,2013-04-08 17:00:00,
2013-04-08 10:15:00,52.7,38.0,29.94,NNW,345,6.0,24.0,58,0.00,,,0.00,weatherlink.com 1.10,2013-04-08 17:15:00,
2013-04-08 10:30:00,53.7,39.0,29.94,NW,308,16.0,23.0,57,0.00,,,0.00,weatherlink.com 1.10,2013-04-08 17:30:00,
2013-04-08 10:45:00,54.3,37.0,29.94,WNW,300,11.0,26.0,53,0.00,,,0.00,weatherlink.com 1.10,2013-04-08 17:45:00,
2013-04-08 11:00:00,55.4,38.0,29.94,NNW,339,6.0,21.0,53,0.00,,,0.00,weatherlink.com 1.10,2013-04-08 18:00:00,
2013-04-08 11:15:00,56.2,37.0,29.94,NNW,340,12.0,22.0,49,0.00,,,0.00,weatherlink.com 1.10,2013-04-08 18:15:00,
2013-04-08 11:30:00,56.9,37.0,29.94,NW,325,13.0,19.0,47,0.00,,,0.00,weatherlink.com 1.10,2013-04-08 18:30:00,
2013-04-08 11:45:00,57.5,36.0,29.94,NW,311,8.0,22.0,45,0.00,,,0.00,weatherlink.com 1.10,2013-04-08 18:45:00,
2013-04-08 12:00:00,58.4,35.0,29.94,NNW,345,12.0,24.0,42,0.00,,,0.00,weatherlink.com 1.10,2013-04-08 19:00:00,
2013-04-08 12:15:00,59.0,36.0,29.94,NW,311,5.0,26.0,42,0.00,,,0.00,weatherlink.com 1.10,2013-04-08 19:15:00,
2013-04-08 12:30:00,59.7,37.0,29.94,NNW,328,5.0,23.0,43,0.00,,,0.00,weatherlink.com 1.10,2013-04-08 19:30:00,
2013-04-08 12:46:00,60.4,37.0,29.94,NNW,328,12.0,20.0,42,0.00,,,0.00,weatherlink.com 1.10,2013-04-08 19:46:00,
2013-04-08 13:00:00,61.1,38.0,29.94,WNW,300,2.0,17.0,42,0.00,,,0.00,weatherlink.com 1.10,2013-04-08 20:00:00,
2013-04-08 13:15:00,61.2,38.0,29.93,NW,304,10.0,23.0,43,0.00,,,0.00,weatherlink.com 1.10,2013-04-08 20:15:00,
2013-04-08 13:30:00,61.7,38.0,29.93,WNW,302,8.0,23.0,42,0.00,,,0.00,weatherlink.com 1.10,2013-04-08 20:30:00,
2013-04-08 13:45:00,62.6,39.0,29.93,NNW,327,11.0,18.0,42,0.00,,,0.00,weatherlink.com 1.10,2013-04-08 20:45:00,
2013-04-08 14:01:00,63.2,40.0,29.92,North,356,14.0,21.0,43,0.00,,,0.00,weatherlink.com 1.10,2013-04-08 21:01:00,
2013-04-08 14:16:00,63.5,38.0,29.92,NW,307,16.0,19.0,39,0.00,,,0.00,weatherlink.com 1.10,2013-04-08 21:16:00,
2013-04-08 14:31:00,65.4,38.0,29.92,NW,314,11.0,16.0,37,0.00,,,0.00,weatherlink.com 1.10,2013-04-08 21:31:00,
2013-04-08 14:46:00,66.8,30.0,29.91,NNW,347,6.0,14.0,25,0.00,,,0.00,weatherlink.com 1.10,2013-04-08 21:46:00,
2013-04-08 15:46:00,67.4,41.0,29.91,NW,313,16.0,20.0,38,0.00,,,0.00,weatherlink.com 1.10,2013-04-08 22:46:00,
2013-04-08 16:01:00,65.7,41.0,29.90,NW,322,8.0,17.0,41,0.00,,,0.00,weatherlink.com 1.10,2013-04-08 23:01:00,
2013-04-08 16:32:00,65.6,44.0,29.91,WNW,290,7.0,19.0,45,0.00,,,0.00,weatherlink.com 1.10,2013-04-08 23:32:00,
2013-04-08 16:46:00,64.1,43.0,29.91,NW,317,7.0,17.0,46,0.00,,,0.00,weatherlink.com 1.10,2013-04-08 23:46:00,
2013-04-08 17:01:00,63.5,42.0,29.91,WNW,293,6.0,20.0,46,0.00,,,0.00,weatherlink.com 1.10,2013-04-09 00:01:00,
2013-04-08 17:16:00,62.6,42.0,29.92,WNW,288,10.0,23.0,47,0.00,,,0.00,weatherlink.com 1.10,2013-04-09 00:16:00,
2013-04-08 17:46:00,62.4,44.0,29.92,WNW,295,6.0,17.0,51,0.00,,,0.00,weatherlink.com 1.10,2013-04-09 00:46:00,
2013-04-08 18:01:00,61.3,43.0,29.92,NW,308,10.0,18.0,52,0.00,,,0.00,weatherlink.com 1.10,2013-04-09 01:01:00,
2013-04-08 18:16:00,60.4,44.0,29.92,NW,311,8.0,18.0,55,0.00,,,0.00,weatherlink.com 1.10,2013-04-09 01:16:00,
2013-04-08 18:31:00,59.6,44.0,29.93,WNW,293,7.0,18.0,56,0.00,,,0.00,weatherlink.com 1.10,2013-04-09 01:31:00,
2013-04-08 18:46:00,59.0,44.0,29.93,NW,309,10.0,15.0,58,0.00,,,0.00,weatherlink.com 1.10,2013-04-09 01:46:00,
2013-04-08 19:01:00,59.2,44.0,29.94,NW,311,6.0,11.0,58,0.00,,,0.00,weatherlink.com 1.10,2013-04-09 02:01:00,
2013-04-08 19:16:00,58.0,44.0,29.94,WNW,295,1.0,9.0,60,0.00,,,0.00,weatherlink.com 1.10,2013-04-09 02:16:00,
2013-04-08 19:31:00,57.0,44.0,29.95,NW,311,1.0,10.0,63,0.00,,,0.00,weatherlink.com 1.10,2013-04-09 02:31:00,
2013-04-08 19:46:00,55.9,45.0,29.95,NNE,30,0.0,4.0,66,0.00,,,0.00,weatherlink.com 1.10,2013-04-09 02:46:00,
2013-04-08 20:01:00,55.2,44.0,29.95,NW,319,2.0,6.0,66,0.00,,,0.00,weatherlink.com 1.10,2013-04-09 03:01:00,
2013-04-08 20:16:00,55.9,44.0,29.96,North,358,3.0,10.0,64,0.00,,,0.00,weatherlink.com 1.10,2013-04-09 03:16:00,
2013-04-08 20:31:00,55.8,44.0,29.96,NW,305,5.0,8.0,64,0.00,,,0.00,weatherlink.com 1.10,2013-04-09 03:31:00,
2013-04-08 20:46:00,55.6,43.0,29.97,NNW,340,1.0,5.0,64,0.00,,,0.00,weatherlink.com 1.10,2013-04-09 03:46:00,
2013-04-08 21:01:00,55.2,44.0,29.98,ENE,59,2.0,6.0,66,0.00,,,0.00,weatherlink.com 1.10,2013-04-09 04:01:00,
2013-04-08 21:16:00,54.6,44.0,29.98,NE,39,2.0,6.0,67,0.00,,,0.00,weatherlink.com 1.10,2013-04-09 04:16:00,
2013-04-08 21:31:00,54.8,43.0,29.98,NNE,29,4.0,11.0,65,0.00,,,0.00,weatherlink.com 1.10,2013-04-09 04:31:00,
2013-04-08 21:46:00,55.0,43.0,29.99,NW,325,2.0,7.0,64,0.00,,,0.00,weatherlink.com 1.10,2013-04-09 04:46:00,
2013-04-08 22:01:00,54.8,43.0,29.99,NE,34,1.0,7.0,65,0.00,,,0.00,weatherlink.com 1.10,2013-04-09 05:01:00,
2013-04-08 22:16:00,54.9,43.0,30.00,NNW,330,2.0,9.0,64,0.00,,,0.00,weatherlink.com 1.10,2013-04-09 05:16:00,
2013-04-08 22:31:00,54.7,43.0,30.00,North,5,0.0,9.0,64,0.00,,,0.00,weatherlink.com 1.10,2013-04-09 05:31:00,
2013-04-08 22:46:00,54.4,42.0,30.00,NW,317,2.0,8.0,64,0.00,,,0.00,weatherlink.com 1.10,2013-04-09 05:46:00,
2013-04-08 23:02:00,54.4,42.0,30.00,NE,41,4.0,11.0,63,0.00,,,0.00,weatherlink.com 1.10,2013-04-09 06:02:00,
2013-04-08 23:17:00,53.9,42.0,30.00,East,91,2.0,7.0,64,0.00,,,0.00,weatherlink.com 1.10,2013-04-09 06:17:00,
2013-04-08 23:31:00,53.2,42.0,30.01,NNE,32,2.0,7.0,66,0.00,,,0.00,weatherlink.com 1.10,2013-04-09 06:31:00,
2013-04-08 23:46:00,52.6,42.0,30.01,NNE,26,2.0,5.0,67,0.00,,,0.00,weatherlink.com 1.10,2013-04-09 06:46:00,